Temp
15 14 14 14 14 14 14 15 15 15 15 14 14 14 15 15 15 15 15 15 15 15 14 15 15 15 15 15 15 15 15 15 15 15 15 14 14 14 15 15 15 15 15 15 15 15 15 15 15 15 15 15 15 15 15 15 15 15 15 15 15 15 15 15 15 15 15 16 16 16 16 16 16 16 16 16 16 16 16 16 16 15 15 15 15
15 14 14 14 14 14 14 15 14 15 14 14 15 15 15 15 15 15 16 15 15 15 15 15 15 15 15 15 14 15 15 15 15 14 14 14 14 14 14 14 14 15 15 15 15 15 15 15 15 15 15 15 15 15 15 15 15 15 15 15 15 15 15 15 15 15 15 16 16 16 16 16 16 16 16 16 16 16 16 16 15 15 14 15 15
14 14 14 14 14 14 14 14 14 14 14 15 15 15 15 15 16 16 16 16 16 16 16 15 15 15 15 15 15 15 14 15 15 15 14 14 14 14 14 14 14 15 15 15 15 15 15 15 15 15 15 15 15 15 15 15 15 15 15 15 15 15 15 15 16 16 16 16 16 16 16 16 16 16 17 17 16 16 16 16 16 15 15 15 15
14 14 14 14 14 14 14 14 14 15 15 15 15 15 15 15 16 16 16 16 16 16 16 16 16 15 15 15 15 14 14 14 14 14 14 14 14 14 14 14 14 14 15 15 15 15 15 15 15 15 15 15 15 15 15 15 15 15 15 15 15 15 15 15 16 16 16 16 16 16 16 16 16 17 17 17 17 17 17 17 17 16 16 16 15
14 14 14 14 14 14 14 14 14 15 15 15 15 15 15 16 16 15 16 16 16 16 16 16 16 15 15 15 15 14 14 14 14 14 14 14 14 14 14 14 14 14 14 14 14 15 15 15 15 15 15 15 15 15 15 15 15 15 15 15 15 15 15 16 16 16 16 16 16 16 17 16 16 17 17 17 17 17 17 17 16 16 16 16 15
14 14 14 14 14 14 14 15 15 15 15 15 15 15 15 15 15 15 15 15 15 15 15 15 15 15 15 15 15 15 14 14 14 14 14 14 14 14 14 14 14 14 14 14 14 14 14 15 15 14 15 15 15 14 14 15 15 15 15 15 15 15 15 16 16 16 16 16 16 17 17 16 16 16 16 17 17 17 16 16 16 16 16 16 15
14 15 14 14 15 15 15 15 15 15 15 15 15 15 15 15 15 15 15 15 15 15 15 15 15 15 15 15 15 15 15 14 14 14 14 14 14 14 14 14 14 14 14 14 14 14 14 14 15 14 14 14 14 14 14 15 15 15 15 15 15 15 16 16 16 16 16 16 16 16 16 16 16 16 17 16 16 16 16 16 16 16 16 16 16
15 15 14 15 15 15 15 15 15 15 15 15 15 15 14 14 14 14 14 14 14 15 15 15 15 15 15 15 15 15 15 14 14 14 14 14 14 14 14 14 14 14 14 14 14 14 14 14 14 14 14 14 14 14 14 15 15 15 15 15 15 15 15 15 15 15 15 16 16 16 16 16 16 16 16 16 16 16 16 16 16 16 16 16 16
15 15 15 15 15 15 15 15 15 15 15 14 14 14 14 14 14 14 14 14 14 14 14 15 15 15 15 15 15 15 15 15 14 14 14 14 14 14 14 14 14 14 14 14 14 14 14 14 14 14 14 14 14 14 14 15 15 15 15 15 15 15 15 15 15 15 15 15 16 16 16 16 15 16 16 16 16 16 16 15 15 15 15 16 16
15 15 15 15 15 15 14 14 14 14 14 14 14 14 14 13 13 13 13 13 13 13 14 14 14 14 14 14 14 15 15 15 14 14 13 13 14 14 14 14 14 13 14 14 14 14 14 14 14 14 14 14 14 14 14 15 15 15 15 15 15 15 15 15 15 15 15 15 15 15 15 16 15 15 15 16 15 15 15 15 15 15 15 16 16
15 15 15 15 14 14 14 14 14 14 14 14 14 13 13 13 13 13 13 12 13 13 13 13 14 14 14 14 14 14 14 14 14 14 13 13 14 13 13 13 13 13 13 13 13 14 14 14 14 14 14 14 14 14 15 15 14 14 14 15 15 15 15 15 15 15 15 15 15 15 15 16 15 15 15 15 15 15 15 15 15 15 15 15 15
15 15 15 14 14 14 14 14 14 14 14 14 13 13 13 13 13 12 12 12 12 13 13 13 13 13 13 13 13 13 14 13 14 14 13 13 13 13 13 13 13 13 13 13 13 13 14 14 14 14 14 14 14 14 14 14 14 14 14 15 15 15 15 15 15 15 15 15 15 15 15 15 15 15 15 15 15 15 15 15 15 15 14 15 15
14 14 14 14 14 14 14 14 14 13 13 13 13 13 13 12 12 12 12 12 12 13 13 13 13 13 13 13 13 13 13 13 14 14 13 13 13 13 14 13 13 13 13 13 12 12 13 14 14 14 14 14 14 14 14 14 14 14 14 14 15 15 15 15 15 15 15 15 15 15 15 15 15 15 15 15 14 15 15 15 15 14 14 15 15
14 14 14 14 14 14 14 14 13 13 13 13 13 12 12 12 12 12 12 12 12 13 13 13 13 12 13 13 13 13 13 13 14 14 13 13 13 14 14 14 13 14 14 14 13 12 13 14 15 14 14 14 14 14 14 14 14 14 14 14 15 15 15 15 15 15 15 15 15 14 14 14 15 15 14 14 14 14 15 15 14 14 14 15 15
14 14 14 14 14 14 14 13 13 13 13 13 13 12 12 12 12 12 12 12 12 13 13 12 12 12 12 13 12 13 13 13 13 13 13 14 13 13 13 13 13 13 14 14 13 12 13 14 15 15 14 14 14 14 14 14 14 14 14 14 15 15 15 14 14 14 14 14 14 14 13 14 14 14 13 13 13 14 14 14 14 14 14 14 15
14 14 14 14 14 14 14 13 13 13 13 13 13 12 12 12 12 12 12 12 12 12 12 12 12 12 12 12 12 13 13 13 13 13 13 13 13 13 13 13 13 13 13 14 13 12 14 14 15 15 14 14 14 14 14 14 14 14 14 14 14 14 14 14 14 14 13 13 13 13 13 14 14 14 14 14 13 13 13 14 14 14 14 14 14
15 14 14 14 14 14 13 13 13 13 13 13 12 12 12 12 12 12 12 12 12 12 12 11 11 12 12 12 12 12 12 12 13 13 13 13 13 13 13 13 13 13 13 14 13 13 14 15 15 14 14 14 14 14 14 14 14 14 14 14 14 14 14 14 13 13 13 13 13 13 14 15 14 14 14 14 14 14 14 13 13 13 13 14 14
15 14 14 14 14 13 13 12 13 13 13 13 12 12 12 12 12 12 12 11 12 12 12 11 11 12 12 12 12 12 12 12 13 13 13 13 13 13 13 13 13 13 13 14 13 14 14 15 14 14 14 14 14 14 14 14 14 14 14 14 14 14 14 13 13 13 13 14 14 14 14 14 14 15 14 14 14 14 14 13 13 13 13 13 13
15 14 14 14 13 13 12 12 13 13 13 13 13 12 12 12 12 12 12 12 12 11 11 11 11 11 12 12 12 12 12 12 13 13 13 13 13 13 13 13 13 13 13 13 14 14 14 14 14 14 14 14 14 14 14 14 14 14 14 14 14 14 14 13 13 14 14 14 14 14 14 14 14 15 14 14 14 14 14 14 13 13 13 13 13
15 14 14 14 13 13 12 13 13 13 13 13 13 13 12 12 12 12 12 12 12 11 11 11 11 11 12 12 12 12 12 13 13 13 13 13 13 13 13 13 13 13 13 13 13 14 14 14 14 14 14 14 14 14 14 14 14 14 14 14 14 14 13 13 13 14 14 14 14 14 14 14 14 14 14 14 14 14 14 14 13 13 14 14 14
14 14 14 14 13 13 13 13 13 13 13 13 13 13 13 12 12 12 12 11 11 11 11 11 11 11 12 12 12 12 12 12 13 13 13 13 13 13 13 13 13 13 13 13 13 13 14 14 14 14 14 14 14 14 14 14 14 14 14 14 14 13 13 13 14 14 14 14 14 14 14 14 14 14 14 14 14 14 14 14 13 14 14 14 14
13 13 13 13 13 13 13 13 13 13 13 13 13 13 12 12 12 12 12 11 11 11 11 11 12 11 12 12 12 12 12 12 12 13 13 13 13 13 13 13 12 13 13 13 13 13 14 14 14 14 14 14 14 13 13 14 14 14 14 14 13 13 13 14 14 14 14 14 14 14 14 14 14 14 14 13 13 14 14 14 14 14 14 14 14
14 13 13 13 13 12 13 14 14 13 13 13 12 12 12 12 12 12 12 12 11 11 11 11 12 12 11 11 11 12 12 12 12 12 12 12 13 13 13 12 12 13 13 13 13 13 14 14 14 14 14 14 13 13 13 13 13 14 14 14 13 13 13 14 14 14 14 14 14 14 14 14 13 13 13 13 13 13 14 13 14 14 14 14 14
14 14 14 13 13 13 14 14 14 14 13 12 12 12 12 12 12 12 12 12 12 12 11 11 11 11 11 11 12 12 12 12 12 12 12 12 12 12 12 12 12 13 13 13 13 13 13 13 13 14 13 13 13 13 13 13 13 13 13 14 14 13 14 14 14 14 14 14 13 13 13 13 13 13 13 13 13 13 13 13 13 14 14 13 14
14 14 14 13 13 14 14 14 14 14 13 12 12 13 12 12 12 12 12 13 12 12 12 12 11 11 11 11 12 11 12 12 12 12 12 12 12 12 12 12 12 13 13 13 13 13 13 13 13 13 13 13 13 13 13 13 13 13 13 14 14 13 13 14 14 14 14 13 13 13 13 13 13 14 14 13 13 13 13 13 13 13 13 13 14
14 14 14 13 13 14 14 14 14 14 14 13 12 13 12 12 12 12 12 12 12 12 12 12 11 11 11 11 11 11 12 12 12 12 12 12 12 12 12 12 12 12 13 13 13 13 13 13 13 13 13 13 13 14 14 13 13 13 13 14 14 14 13 13 13 13 13 13 13 13 14 14 14 14 14 14 14 13 14 13 13 13 13 14 14
15 14 14 13 14 14 14 14 14 14 14 13 12 12 12 12 12 12 12 12 12 12 12 12 12 11 11 11 11 11 11 11 12 12 12 12 12 12 12 12 12 12 12 13 13 13 13 13 13 13 13 13 13 14 14 14 14 13 13 13 14 14 13 13 13 13 13 13 13 14 14 14 14 14 14 14 14 14 13 13 13 13 13 14 14
15 14 14 14 14 14 14 14 14 14 14 13 12 12 12 12 12 12 12 12 12 12 12 12 12 11 11 11 11 11 11 11 12 12 12 12 12 12 12 12 12 12 12 13 13 13 13 13 13 13 13 13 13 14 14 14 14 13 13 13 13 13 13 13 13 13 13 13 13 14 14 14 14 14 14 14 14 13 13 13 13 13 14 14 14
14 14 14 13 14 14 13 13 14 14 14 13 12 13 13 13 13 12 12 12 12 12 12 12 12 12 11 11 10 10 11 11 11 12 12 12 12 12 12 12 12 12 12 12 12 13 13 13 13 13 13 13 13 14 14 13 13 13 13 13 13 13 13 13 13 13 13 13 13 13 13 14 14 14 14 14 14 13 13 13 13 14 14 14 14
14 14 14 13 14 14 13 14 14 14 14 14 13 13 13 13 13 12 12 12 12 12 12 12 12 12 11 11 10 10 11 11 11 12 12 12 12 12 12 12 12 12 12 12 12 12 13 13 13 13 14 13 13 14 13 13 13 13 13 13 13 13 13 13 13 13 13 13 13 13 13 13 13 14 14 14 14 14 13 13 13 13 14 13 13
15 14 14 13 14 14 14 14 14 14 14 14 14 14 14 14 13 13 13 13 12 12 12 12 12 12 11 11 10 10 11 11 11 11 12 12 12 12 13 12 12 12 12 12 12 12 12 13 13 13 13 13 13 13 13 13 13 13 13 13 13 13 13 13 13 13 12 12 13 13 13 13 14 14 14 14 14 14 13 13 13 13 13 13 13
15 14 14 14 14 14 14 14 14 14 14 14 14 14 14 14 14 13 13 13 12 12 12 12 12 11 11 11 10 10 11 11 11 11 12 12 12 12 12 12 12 12 12 12 12 12 12 13 13 13 13 13 13 13 13 13 13 13 13 13 13 13 13 13 13 13 12 12 13 13 13 13 13 13 14 14 14 14 13 13 13 13 13 13 13
15 14 14 14 14 14 15 14 14 14 14 14 14 14 14 14 14 13 14 13 12 12 12 12 12 11 11 11 11 10 10 11 11 11 12 12 12 12 12 12 12 12 12 12 12 12 12 12 13 13 13 13 13 13 13 13 13 13 13 13 13 13 13 13 13 13 13 13 13 13 12 13 13 13 13 13 13 13 13 14 13 13 13 13 13
15 14 14 14 14 14 15 15 14 14 14 14 14 14 14 14 13 13 14 13 12 12 12 12 12 12 12 11 11 11 10 11 11 11 11 11 11 12 11 11 11 11 12 12 12 12 12 12 13 13 13 13 13 13 13 13 13 13 13 13 13 13 13 13 13 13 13 13 13 13 12 13 13 13 13 13 13 13 13 14 13 13 13 13 13
14 14 14 15 14 14 15 14 14 14 14 14 14 14 14 14 13 13 14 13 12 12 12 12 12 12 12 11 11 11 11 11 10 10 11 11 11 11 11 11 11 11 12 12 12 12 12 12 13 13 13 13 13 13 13 13 13 13 13 13 13 13 13 13 13 13 13 13 13 13 13 13 12 12 13 13 13 13 13 13 13 13 13 13 13
14 14 15 15 14 15 15 14 14 14 14 14 14 14 14 14 14 14 14 14 13 12 12 12 12 12 12 12 11 11 11 11 11 10 10 11 11 11 11 11 11 11 11 12 12 12 12 12 13 13 13 13 13 13 13 13 13 13 13 13 13 13 13 13 13 13 13 13 13 13 13 13 13 13 13 13 13 13 13 13 13 13 13 13 13
15 15 15 14 14 15 15 14 14 14 14 14 14 14 14 14 13 14 14 14 13 13 12 12 12 12 12 12 11 11 11 11 11 10 10 10 10 10 11 11 11 11 11 11 12 12 12 12 13 14 13 13 13 13 13 13 13 13 13 13 13 13 13 13 13 13 13 13 13 13 13 13 14 13 13 12 12 13 13 13 13 13 13 13 13
15 15 15 15 14 15 15 15 14 14 14 14 14 14 14 14 14 14 14 14 14 13 13 12 12 12 12 12 11 11 11 11 11 10 10 10 10 11 11 11 11 11 11 12 12 12 12 12 12 14 14 13 13 13 13 13 13 13 13 13 13 13 13 13 13 13 13 13 13 13 14 14 14 14 13 13 12 12 13 13 13 13 13 13 13
15 15 15 15 15 15 15 15 14 14 14 14 14 14 13 13 14 14 14 13 14 14 13 13 12 12 12 12 12 12 11 11 11 11 10 10 11 11 11 11 11 11 11 11 12 11 11 12 12 12 14 14 13 14 14 13 13 13 13 13 13 13 14 13 13 13 13 13 13 13 14 14 14 14 14 13 13 13 12 12 13 13 13 13 13
15 15 15 15 15 15 15 15 14 14 14 14 13 13 13 13 13 13 14 14 14 14 14 13 13 13 13 12 12 12 11 11 11 11 11 11 11 11 11 11 11 11 11 11 11 11 11 12 12 12 12 13 13 13 14 13 13 13 13 13 13 14 14 13 13 13 13 13 13 13 13 13 13 14 14 14 14 13 13 13 13 13 13 13 13
15 15 15 15 15 15 15 15 14 14 14 13 13 13 13 13 13 13 13 13 13 13 14 14 14 13 13 13 12 12 12 12 11 11 11 11 11 11 11 11 11 11 11 11 11 12 12 11 12 12 12 12 13 13 13 13 13 13 13 13 13 14 14 13 13 13 13 13 13 13 13 13 13 13 13 13 14 14 13 13 13 13 13 13 13
15 15 15 15 15 15 15 15 15 14 14 14 14 14 14 14 14 14 13 13 13 14 14 14 14 14 13 13 13 12 12 12 11 11 11 11 11 11 11 11 11 11 11 11 12 12 12 12 12 12 12 12 13 13 13 13 13 13 13 14 13 13 13 13 13 13 13 13 13 13 13 13 13 13 13 13 13 13 14 13 13 13 13 13 13
15 15 15 15 15 15 15 15 15 15 15 15 14 14 15 15 15 15 14 14 14 15 14 14 14 14 14 14 13 13 12 12 12 12 12 11 11 11 11 11 11 11 11 11 12 12 12 12 12 12 12 12 12 13 13 13 13 13 14 15 15 14 14 14 13 13 13 13 13 13 13 13 13 13 12 13 13 13 13 14 13 13 13 13 13
15 15 15 15 15 15 15 15 15 15 15 15 15 15 15 15 15 15 15 14 14 14 14 14 14 14 14 14 14 14 13 12 12 12 12 12 12 11 11 11 11 11 11 11 11 11 12 12 12 12 12 12 12 12 13 13 13 13 14 15 15 15 16 14 13 13 13 13 13 13 13 13 13 13 12 13 13 12 13 13 14 13 13 13 13
15 15 15 15 15 15 15 15 15 15 15 15 15 15 15 15 15 15 15 14 14 14 14 14 14 14 14 14 14 14 13 13 12 12 12 12 12 11 11 12 11 11 11 11 11 11 11 11 12 12 12 12 12 12 13 13 13 13 14 14 15 15 15 14 14 14 13 13 12 12 12 13 12 12 12 12 12 12 13 13 13 13 13 13 13
15 15 15 15 14 15 15 15 15 15 15 15 15 15 15 15 15 14 14 14 14 14 14 14 14 14 15 15 14 14 14 14 12 12 12 12 12 11 11 12 11 11 12 11 11 11 11 11 11 12 12 11 12 12 12 12 13 13 13 13 13 14 13 13 14 14 14 13 12 12 12 12 12 12 12 12 12 12 12 12 13 13 14 13 13
15 15 15 15 15 15 15 15 15 15 15 15 15 15 15 15 15 15 15 14 14 14 15 15 15 15 15 15 15 14 14 14 13 12 12 12 12 12 11 12 12 12 12 11 12 12 11 12 12 12 12 11 11 12 12 12 12 12 12 12 12 12 12 13 13 14 15 14 13 12 12 12 12 12 12 12 12 12 12 12 12 13 13 13 13
15 15 15 15 15 16 16 16 16 15 15 15 15 15 15 15 15 15 15 14 14 15 15 15 15 15 15 15 15 14 14 14 13 13 13 12 12 12 12 12 12 12 12 12 11 12 12 12 12 12 12 12 12 11 11 12 12 12 11 12 12 12 12 12 12 13 14 14 14 13 12 12 12 11 11 11 12 12 12 12 12 12 12 12 12
15 15 15 16 16 16 16 16 16 16 15 15 15 15 15 15 15 15 14 14 15 15 14 14 15 15 15 15 15 14 14 14 14 14 13 13 13 13 12 12 12 12 12 12 12 12 12 12 12 12 12 12 12 12 12 12 12 12 12 12 12 12 12 12 12 12 13 13 14 13 13 13 12 12 11 11 12 12 12 12 12 12 12 12 12
15 15 15 15 16 16 16 16 16 15 15 15 15 15 15 15 15 15 14 14 14 15 14 15 15 15 14 14 14 14 14 14 14 14 14 14 14 13 13 13 13 13 13 13 13 13 13 12 12 12 12 12 12 12 12 12 11 11 11 12 12 12 13 13 12 12 12 13 13 13 13 13 13 13 12 12 12 12 12 12 12 12 13 12 12
15 15 15 15 15 16 16 16 16 15 15 16 15 15 16 15 15 15 15 14 14 15 14 14 14 14 14 14 14 14 14 14 14 14 14 14 14 14 14 14 14 14 14 14 13 13 13 13 13 13 13 12 12 12 12 12 12 12 12 12 12 12 13 13 12 12 13 13 13 14 14 13 13 13 13 12 12 12 12 12 12 13 13 13 12
Height
1516 1517 1519 1520 1520 1519 1518 1517 1517 1517 1517 1517 1517 1517 1516 1516 1516 1515 1515 1515 1514 1514 1513 1513 1512 1512 1511 1511 1511 1510 1510 1509 1509 1508 1507 1507 1506 1506 1506 1505 1505 1505 1504 1504 1503 1503 1503 1502 1502 1502 1501 1501 1501 1500 1500 1499 1499 1499 1499 1499 1498 1498 1498 1497 1496 1496 1495 1495 1495 1494 1494 1494 1494 1494 1494 1495 1495 1495 1495 1496 1497 1498 1499 1499 1500
1517 1518 1520 1521 1521 1519 1519 1518 1518 1518 1518 1518 1517 1517 1517 1517 1516 1516 1515 1515 1515 1514 1513 1513 1512 1512 1511 1511 1511 1510 1509 1509 1508 1507 1507 1506 1506 1506 1505 1505 1504 1504 1503 1503 1503 1502 1502 1502 1502 1501 1501 1500 1500 1499 1499 1499 1498 1498 1498 1498 1498 1497 1497 1496 1495 1495 1494 1494 1493 1493 1493 1493 1493 1493 1493 1494 1494 1494 1494 1494 1495 1497 1498 1498 1499
1518 1519 1521 1522 1521 1520 1519 1519 1519 1519 1518 1518 1518 1517 1517 1517 1517 1516 1516 1515 1515 1514 1514 1513 1512 1512 1511 1511 1510 1510 1509 1509 1508 1507 1506 1506 1505 1505 1505 1504 1504 1503 1503 1503 1502 1502 1502 1501 1501 1501 1500 1500 1499 1499 1498 1498 1498 1498 1498 1497 1497 1496 1496 1495 1495 1494 1493 1493 1493 1492 1492 1492 1492 1492 1492 1493 1493 1493 1492 1493 1493 1494 1494 1496 1498
1518 1519 1521 1522 1521 1520 1519 1519 1519 1519 1519 1518 1518 1518 1518 1518 1517 1517 1516 1516 1515 1515 1514 1513 1513 1512 1512 1511 1510 1510 1509 1508 1508 1507 1506 1506 1505 1505 1504 1504 1503 1503 1503 1502 1502 1502 1501 1501 1501 1500 1500 1499 1499 1498 1498 1498 1498 1497 1497 1497 1496 1495 1495 1494 1494 1493 1493 1492 1492 1492 1492 1492 1491 1491 1492 1492 1491 1491 1491 1490 1491 1491 1492 1493 1496
1519 1520 1521 1521 1521 1520 1519 1519 1519 1519 1519 1519 1519 1518 1518 1518 1517 1517 1516 1516 1515 1515 1514 1513 1513 1512 1511 1511 1510 1509 1509 1508 1507 1507 1506 1505 1504 1504 1504 1503 1502 1502 1502 1502 1501 1501 1501 1500 1500 1500 1499 1499 1499 1498 1498 1497 1497 1497 1497 1496 1495 1495 1494 1493 1493 1492 1492 1492 1492 1492 1492 1492 1491 1490 1490 1490 1490 1490 1489 1489 1489 1490 1490 1491 1493
1519 1520 1521 1521 1521 1520 1520 1520 1520 1520 1519 1519 1519 1519 1519 1518 1518 1517 1517 1516 1515 1515 1514 1513 1512 1512 1511 1510 1510 1509 1508 1508 1507 1506 1505 1505 1504 1503 1503 1502 1502 1501 1501 1501 1501 1500 1500 1500 1499 1499 1499 1499 1499 1498 1498 1497 1497 1497 1496 1496 1495 1494 1493 1493 1492 1492 1492 1491 1491 1491 1491 1491 1490 1489 1489 1488 1488 1488 1488 1488 1489 1489 1490 1490 1491
1520 1520 1521 1521 1521 1520 1520 1520 1520 1520 1520 1520 1520 1519 1519 1518 1518 1517 1517 1516 1515 1515 1514 1513 1512 1512 1511 1510 1509 1509 1508 1507 1507 1506 1505 1504 1503 1503 1502 1502 1501 1501 1500 1500 1500 1499 1499 1499 1499 1498 1498 1499 1498 1498 1497 1497 1496 1496 1496 1495 1494 1494 1493 1493 1492 1492 1491 1491 1491 1491 1490 1490 1489 1488 1488 1488 1487 1488 1487 1488 1488 1489 1489 1490 1490
1520 1521 1521 1521 1521 1521 1521 1521 1521 1521 1520 1520 1520 1519 1519 1519 1518 1518 1517 1516 1515 1514 1513 1513 1512 1511 1510 1510 1509 1508 1508 1507 1506 1505 1505 1504 1503 1503 1502 1502 1501 1500 1499 1499 1499 1499 1498 1498 1498 1498 1498 1498 1498 1497 1497 1496 1496 1496 1495 1494 1494 1493 1493 1492 1491 1491 1491 1491 1490 1490 1490 1489 1488 1488 1487 1487 1487 1487 1487 1487 1488 1489 1489 1489 1490
1521 1521 1522 1522 1522 1522 1522 1521 1521 1521 1520 1520 1520 1519 1519 1519 1518 1517 1517 1516 1515 1514 1513 1512 1512 1511 1510 1509 1508 1508 1507 1506 1506 1505 1505 1504 1503 1503 1502 1501 1500 1499 1498 1497 1497 1498 1498 1498 1497 1497 1497 1497 1497 1497 1496 1496 1495 1495 1494 1494 1493 1493 1492 1492 1491 1491 1490 1490 1490 1489 1489 1489 1488 1488 1487 1487 1486 1486 1487 1487 1487 1488 1489 1489 1490
1521 1522 1522 1522 1522 1522 1522 1521 1521 1521 1520 1520 1520 1519 1519 1519 1518 1517 1516 1516 1515 1514 1513 1512 1511 1510 1509 1509 1508 1507 1507 1506 1505 1505 1504 1504 1504 1502 1501 1500 1499 1498 1498 1497 1497 1497 1497 1497 1497 1497 1496 1497 1497 1496 1496 1495 1495 1494 1494 1493 1492 1492 1492 1491 1491 1491 1490 1490 1489 1489 1489 1488 1488 1487 1487 1486 1486 1486 1487 1487 1487 1488 1489 1490 1490
1522 1522 1523 1523 1523 1522 1522 1522 1521 1520 1520 1520 1520 1520 1519 1519 1518 1517 1516 1516 1515 1514 1513 1512 1511 1510 1509 1508 1508 1507 1507 1506 1505 1505 1504 1504 1503 1502 1501 1499 1498 1497 1497 1497 1496 1496 1496 1496 1496 1496 1496 1496 1496 1496 1495 1495 1494 1494 1493 1493 1492 1492 1492 1491 1491 1491 1490 1490 1489 1489 1488 1488 1488 1487 1487 1486 1486 1486 1487 1487 1487 1488 1489 1490 1490
1523 1523 1523 1523 1523 1522 1522 1522 1521 1521 1521 1520 1520 1520 1519 1519 1518 1518 1517 1516 1515 1514 1513 1512 1511 1510 1509 1508 1508 1507 1507 1506 1505 1505 1505 1504 1503 1503 1502 1501 1500 1499 1499 1498 1497 1495 1496 1496 1496 1496 1496 1496 1496 1495 1495 1494 1494 1493 1493 1493 1492 1492 1492 1491 1491 1491 1490 1489 1489 1489 1488 1488 1487 1487 1487 1486 1486 1487 1488 1488 1488 1489 1490 1491 1490
1524 1524 1524 1523 1523 1523 1523 1522 1521 1521 1521 1521 1520 1520 1520 1519 1519 1518 1517 1516 1515 1513 1512 1511 1510 1510 1509 1508 1508 1507 1507 1506 1506 1505 1505 1504 1503 1504 1503 1502 1502 1501 1501 1501 1499 1496 1496 1496 1495 1495 1495 1496 1495 1495 1495 1494 1494 1493 1493 1493 1492 1492 1491 1491 1491 1490 1490 1490 1489 1489 1488 1488 1488 1487 1487 1487 1487 1488 1488 1489 1490 1491 1492 1492 1492
1524 1524 1524 1524 1524 1523 1523 1523 1522 1522 1521 1521 1521 1521 1520 1520 1519 1518 1517 1516 1515 1513 1512 1511 1510 1509 1509 1509 1508 1508 1507 1506 1506 1505 1504 1503 1503 1503 1502 1501 1502 1502 1501 1501 1501 1497 1496 1495 1494 1495 1495 1495 1495 1495 1494 1494 1494 1493 1493 1492 1492 1491 1491 1491 1491 1490 1490 1490 1489 1489 1489 1489 1488 1488 1487 1487 1488 1489 1490 1491 1491 1492 1493 1494 1494
1525 1525 1525 1524 1524 1524 1524 1523 1523 1522 1521 1521 1521 1521 1521 1520 1519 1519 1518 1516 1515 1513 1511 1510 1510 1509 1509 1509 1508 1508 1507 1507 1506 1505 1504 1503 1503 1503 1502 1502 1502 1502 1501 1500 1501 1498 1496 1495 1494 1494 1494 1495 1495 1495 1494 1494 1494 1493 1493 1492 1492 1491 1491 1490 1491 1490 1490 1490 1489 1489 1490 1489 1489 1489 1489 1489 1490 1491 1491 1492 1492 1493 1495 1496 1496
1525 1525 1525 1525 1525 1525 1525 1524 1523 1522 1522 1522 1522 1522 1521 1520 1520 1519 1518 1516 1515 1513 1511 1510 1510 1509 1509 1509 1508 1508 1507 1507 1506 1505 1504 1503 1504 1504 1503 1502 1502 1502 1500 1500 1501 1499 1497 1495 1494 1494 1494 1495 1494 1494 1494 1494 1494 1493 1493 1493 1492 1492 1491 1490 1491 1491 1491 1491 1490 1490 1491 1490 1490 1490 1491 1491 1492 1493 1493 1494 1494 1494 1496 1497 1498
1526 1526 1526 1526 1526 1526 1525 1524 1524 1523 1523 1523 1522 1522 1522 1521 1520 1519 1518 1516 1514 1512 1511 1510 1510 1509 1509 1509 1508 1508 1507 1507 1506 1505 1505 1504 1504 1504 1503 1502 1502 1502 1501 1500 1501 1499 1497 1496 1495 1494 1495 1495 1495 1494 1494 1494 1494 1494 1493 1493 1492 1492 1491 1490 1491 1491 1491 1491 1491 1492 1491 1491 1491 1491 1492 1492 1494 1495 1495 1496 1496 1496 1498 1499 1499
1526 1526 1527 1527 1526 1526 1525 1525 1524 1524 1524 1523 1523 1522 1522 1522 1521 1520 1518 1516 1514 1512 1510 1510 1510 1510 1510 1509 1509 1508 1508 1507 1506 1505 1505 1505 1504 1504 1504 1503 1503 1503 1501 1501 1500 1498 1497 1496 1495 1495 1495 1495 1495 1494 1494 1494 1494 1494 1493 1493 1492 1492 1491 1491 1492 1492 1491 1491 1492 1492 1492 1492 1492 1492 1493 1494 1495 1496 1496 1497 1498 1498 1500 1500 1500
1527 1527 1527 1527 1527 1526 1526 1526 1525 1525 1524 1523 1523 1523 1523 1522 1521 1520 1518 1516 1514 1512 1510 1510 1510 1510 1510 1510 1509 1509 1508 1507 1506 1505 1505 1505 1505 1504 1504 1503 1503 1503 1502 1501 1500 1499 1497 1496 1496 1495 1496 1496 1495 1495 1495 1494 1494 1494 1494 1493 1493 1492 1492 1492 1492 1492 1491 1491 1492 1492 1492 1492 1492 1493 1494 1494 1495 1496 1497 1498 1499 1500 1501 1501 1501
1528 1528 1528 1527 1527 1527 1527 1526 1525 1525 1524 1524 1524 1524 1523 1522 1521 1520 1518 1517 1514 1512 1511 1511 1510 1510 1510 1510 1509 1509 1508 1507 1506 1505 1505 1505 1505 1504 1504 1503 1503 1503 1502 1502 1500 1499 1498 1497 1497 1496 1496 1496 1496 1495 1495 1495 1495 1494 1494 1493 1493 1492 1492 1492 1492 1492 1491 1491 1492 1492 1492 1493 1493 1493 1493 1494 1495 1496 1497 1498 1499 1500 1501 1501 1502
1528 1528 1528 1528 1528 1527 1527 1526 1526 1525 1525 1524 1524 1524 1523 1523 1522 1520 1519 1517 1515 1513 1512 1512 1511 1511 1510 1510 1510 1509 1509 1508 1507 1506 1505 1505 1504 1504 1504 1503 1503 1503 1502 1502 1501 1500 1499 1498 1498 1498 1497 1497 1496 1496 1495 1495 1495 1495 1494 1494 1493 1493 1492 1492 1492 1492 1492 1492 1493 1493 1493 1493 1493 1493 1493 1494 1494 1495 1497 1498 1499 1501 1501 1502 1503
1529 1529 1529 1528 1528 1528 1527 1526 1526 1525 1525 1525 1525 1525 1524 1523 1522 1522 1520 1518 1516 1514 1513 1513 1513 1512 1511 1511 1510 1510 1509 1508 1508 1507 1506 1506 1505 1505 1505 1504 1503 1503 1502 1502 1501 1500 1500 1499 1499 1498 1498 1497 1496 1496 1496 1495 1495 1495 1495 1494 1493 1493 1493 1493 1492 1492 1492 1492 1493 1494 1493 1493 1493 1493 1493 1494 1494 1495 1497 1497 1499 1501 1501 1502 1503
1530 1530 1530 1529 1528 1528 1527 1526 1526 1526 1526 1525 1525 1525 1524 1523 1523 1522 1521 1520 1518 1516 1514 1514 1514 1513 1512 1511 1511 1510 1510 1509 1509 1508 1507 1507 1506 1506 1506 1505 1504 1503 1503 1502 1502 1501 1501 1500 1500 1499 1498 1498 1497 1497 1497 1497 1496 1496 1495 1494 1494 1493 1493 1493 1493 1493 1493 1493 1493 1494 1494 1493 1493 1493 1493 1493 1494 1495 1496 1497 1499 1500 1501 1502 1503
1531 1531 1530 1529 1528 1528 1527 1527 1527 1526 1526 1526 1526 1525 1524 1524 1523 1523 1522 1521 1520 1518 1516 1515 1514 1513 1513 1512 1512 1512 1511 1510 1510 1509 1508 1508 1507 1507 1507 1506 1505 1504 1504 1503 1503 1502 1502 1501 1500 1500 1499 1499 1499 1499 1498 1498 1497 1496 1496 1495 1494 1494 1494 1494 1493 1494 1494 1494 1494 1494 1494 1494 1494 1494 1494 1494 1494 1495 1496 1497 1498 1499 1501 1502 1503
1531 1531 1531 1529 1529 1528 1528 1527 1527 1527 1526 1526 1526 1525 1525 1525 1524 1523 1523 1522 1521 1519 1518 1517 1515 1514 1513 1513 1512 1512 1512 1511 1510 1509 1509 1508 1508 1507 1507 1507 1507 1506 1505 1505 1505 1504 1503 1503 1502 1501 1501 1500 1500 1499 1499 1499 1498 1497 1496 1495 1495 1494 1494 1494 1494 1495 1494 1494 1494 1494 1494 1495 1495 1495 1495 1496 1496 1495 1496 1497 1498 1499 1501 1502 1503
1531 1531 1531 1530 1529 1529 1528 1528 1528 1527 1527 1526 1526 1526 1525 1525 1524 1523 1523 1523 1521 1520 1519 1518 1516 1515 1514 1513 1513 1512 1512 1511 1511 1510 1509 1508 1508 1508 1508 1507 1508 1507 1507 1507 1507 1506 1505 1504 1504 1503 1502 1501 1500 1500 1499 1499 1499 1499 1498 1497 1496 1496 1495 1495 1495 1495 1495 1495 1494 1494 1495 1496 1497 1496 1496 1496 1496 1496 1496 1497 1498 1500 1501 1502 1503
1531 1531 1531 1530 1529 1529 1529 1528 1528 1528 1527 1526 1527 1527 1525 1525 1524 1524 1524 1523 1522 1521 1520 1519 1517 1516 1514 1513 1513 1512 1511 1511 1510 1510 1510 1509 1509 1508 1508 1508 1508 1508 1508 1508 1507 1507 1507 1506 1505 1504 1503 1502 1501 1501 1500 1500 1500 1499 1499 1498 1497 1497 1497 1496 1496 1496 1496 1495 1494 1495 1495 1496 1497 1497 1497 1497 1497 1497 1496 1497 1498 1500 1502 1503 1503
1531 1531 1531 1530 1530 1529 1529 1529 1528 1528 1527 1527 1527 1527 1526 1525 1525 1525 1524 1524 1523 1522 1521 1520 1519 1517 1515 1514 1512 1511 1511 1510 1510 1510 1510 1510 1509 1509 1509 1508 1508 1509 1508 1508 1507 1507 1507 1507 1506 1505 1504 1503 1502 1502 1501 1501 1500 1500 1500 1499 1498 1498 1498 1497 1497 1497 1496 1496 1495 1495 1495 1496 1496 1497 1497 1497 1497 1497 1496 1497 1498 1500 1502 1503 1503
1531 1531 1531 1530 1530 1530 1529 1529 1529 1528 1528 1528 1528 1527 1526 1525 1525 1525 1525 1524 1524 1523 1522 1521 1520 1519 1516 1514 1513 1511 1511 1511 1511 1511 1510 1510 1510 1510 1509 1509 1509 1509 1509 1508 1508 1507 1508 1507 1507 1507 1506 1505 1504 1503 1502 1502 1502 1501 1501 1500 1499 1499 1499 1499 1498 1498 1497 1496 1496 1495 1496 1496 1497 1497 1498 1498 1498 1497 1497 1497 1499 1501 1502 1502 1503
1531 1531 1531 1531 1530 1530 1530 1529 1529 1529 1528 1528 1528 1527 1526 1526 1525 1525 1525 1525 1524 1524 1523 1522 1521 1519 1517 1515 1513 1512 1512 1511 1511 1511 1511 1511 1510 1511 1510 1510 1510 1509 1509 1509 1508 1508 1508 1508 1508 1507 1507 1506 1505 1504 1504 1504 1503 1503 1502 1501 1501 1501 1500 1500 1499 1499 1498 1497 1497 1497 1497 1497 1497 1498 1498 1498 1498 1498 1497 1498 1500 1501 1502 1502 1503
1531 1531 1531 1531 1530 1530 1530 1529 1529 1529 1529 1529 1528 1528 1527 1527 1526 1526 1526 1525 1525 1525 1524 1523 1522 1520 1518 1516 1514 1513 1513 1512 1511 1512 1511 1511 1511 1511 1511 1511 1511 1510 1510 1510 1509 1508 1508 1508 1508 1507 1507 1507 1506 1505 1505 1505 1505 1504 1503 1503 1503 1503 1502 1501 1501 1500 1500 1499 1499 1499 1498 1498 1498 1498 1498 1499 1498 1498 1498 1499 1500 1501 1502 1502 1503
1531 1531 1531 1531 1530 1530 1530 1530 1529 1529 1529 1529 1529 1528 1528 1527 1527 1527 1526 1526 1525 1526 1525 1524 1522 1521 1519 1517 1515 1514 1514 1513 1512 1512 1512 1512 1512 1512 1512 1511 1512 1511 1510 1510 1510 1509 1509 1508 1508 1507 1507 1507 1507 1507 1507 1506 1506 1505 1504 1504 1504 1504 1504 1503 1503 1502 1502 1501 1500 1500 1500 1499 1499 1499 1499 1499 1499 1499 1499 1500 1500 1501 1502 1502 1503
1531 1531 1531 1530 1530 1530 1530 1530 1530 1530 1530 1530 1529 1529 1529 1528 1528 1528 1527 1526 1526 1526 1525 1524 1523 1522 1520 1518 1517 1516 1515 1514 1513 1513 1513 1513 1512 1512 1512 1512 1512 1512 1511 1510 1510 1510 1510 1509 1509 1508 1508 1508 1508 1507 1507 1507 1507 1507 1506 1505 1505 1505 1505 1505 1504 1504 1503 1503 1502 1501 1501 1501 1500 1500 1500 1500 1500 1500 1500 1500 1501 1501 1501 1502 1503
1531 1531 1530 1530 1531 1530 1530 1530 1530 1530 1530 1530 1530 1530 1529 1529 1529 1528 1528 1527 1527 1526 1525 1524 1523 1523 1522 1520 1518 1517 1516 1515 1514 1513 1513 1513 1513 1513 1512 1512 1511 1511 1511 1511 1511 1511 1510 1510 1510 1509 1509 1508 1508 1508 1508 1508 1508 1508 1507 1507 1506 1506 1506 1506 1506 1505 1504 1504 1503 1503 1503 1503 1502 1501 1501 1501 1502 1501 1501 1501 1501 1502 1502 1503 1504
1531 1530 1530 1530 1531 1531 1530 1530 1530 1531 1531 1531 1531 1530 1530 1530 1529 1529 1529 1528 1527 1526 1526 1525 1525 1524 1523 1522 1520 1519 1518 1516 1515 1514 1513 1513 1513 1513 1512 1511 1511 1512 1512 1511 1512 1512 1511 1510 1510 1510 1510 1509 1509 1508 1509 1509 1508 1508 1508 1508 1507 1507 1507 1507 1507 1507 1506 1506 1505 1504 1504 1504 1504 1503 1502 1502 1502 1502 1502 1502 1502 1502 1503 1503 1504
1530 1530 1530 1530 1531 1531 1531 1531 1531 1531 1531 1531 1531 1531 1531 1530 1530 1530 1529 1528 1528 1527 1526 1526 1526 1525 1525 1523 1521 1520 1519 1518 1516 1515 1514 1513 1513 1513 1512 1511 1512 1512 1512 1512 1512 1512 1511 1511 1510 1510 1510 1510 1510 1509 1509 1509 1509 1509 1509 1509 1509 1509 1509 1508 1508 1508 1508 1508 1507 1506 1505 1505 1504 1504 1504 1503 1503 1503 1503 1503 1503 1503 1503 1504 1504
1530 1530 1530 1530 1531 1531 1531 1531 1531 1531 1532 1532 1532 1531 1531 1531 1530 1530 1530 1529 1528 1528 1527 1527 1527 1526 1526 1524 1523 1521 1520 1519 1518 1516 1514 1514 1513 1512 1512 1511 1512 1513 1513 1513 1513 1513 1512 1511 1511 1510 1510 1511 1511 1510 1510 1510 1510 1510 1510 1510 1510 1509 1509 1509 1509 1509 1509 1508 1508 1507 1506 1506 1505 1505 1505 1505 1504 1504 1504 1504 1504 1504 1504 1504 1505
1530 1530 1530 1530 1531 1531 1531 1531 1531 1532 1532 1532 1532 1532 1531 1531 1531 1530 1530 1530 1529 1528 1528 1528 1527 1527 1526 1525 1524 1523 1521 1520 1518 1517 1516 1515 1513 1513 1512 1512 1513 1514 1514 1514 1514 1513 1513 1512 1512 1511 1510 1511 1511 1511 1511 1511 1511 1511 1511 1510 1510 1510 1509 1509 1509 1510 1509 1509 1508 1508 1507 1507 1507 1506 1506 1506 1506 1506 1505 1505 1505 1505 1505 1505 1505
1529 1529 1530 1530 1531 1531 1531 1532 1532 1532 1532 1532 1532 1532 1532 1532 1531 1531 1530 1530 1530 1529 1528 1528 1528 1527 1527 1526 1525 1524 1523 1521 1520 1518 1517 1516 1515 1514 1514 1514 1514 1515 1515 1515 1515 1514 1513 1513 1512 1512 1512 1511 1511 1511 1512 1512 1512 1512 1511 1511 1511 1510 1510 1510 1510 1510 1510 1510 1509 1509 1508 1508 1508 1507 1507 1507 1507 1507 1507 1506 1506 1506 1506 1506 1505
1529 1529 1530 1530 1531 1531 1531 1532 1532 1532 1532 1532 1532 1533 1533 1532 1532 1531 1531 1530 1530 1529 1529 1528 1528 1528 1527 1527 1526 1525 1524 1523 1522 1520 1519 1517 1517 1515 1515 1515 1516 1515 1515 1515 1515 1515 1514 1514 1513 1513 1513 1513 1512 1512 1512 1513 1513 1513 1513 1512 1512 1511 1511 1511 1510 1510 1510 1510 1510 1510 1509 1509 1509 1508 1508 1508 1508 1508 1507 1507 1507 1507 1507 1506 1506
1528 1529 1530 1530 1531 1531 1531 1532 1532 1532 1532 1533 1533 1533 1533 1532 1532 1532 1531 1531 1530 1530 1530 1529 1529 1528 1528 1528 1527 1526 1525 1524 1523 1522 1521 1520 1519 1518 1517 1517 1517 1517 1516 1516 1516 1515 1515 1515 1515 1514 1514 1514 1513 1513 1513 1513 1514 1514 1514 1513 1513 1512 1512 1512 1511 1511 1511 1511 1510 1510 1510 1509 1509 1509 1509 1509 1508 1508 1508 1508 1508 1507 1507 1507 1506
1528 1529 1529 1530 1531 1531 1532 1532 1532 1532 1532 1532 1533 1532 1532 1532 1532 1532 1531 1531 1531 1531 1530 1530 1530 1529 1529 1529 1528 1527 1527 1526 1525 1524 1523 1522 1521 1520 1519 1518 1518 1518 1518 1517 1517 1516 1515 1515 1516 1516 1516 1515 1514 1514 1514 1514 1514 1514 1514 1514 1513 1513 1513 1513 1512 1512 1511 1511 1511 1510 1510 1510 1509 1509 1510 1510 1509 1509 1508 1508 1508 1508 1508 1507 1507
1527 1528 1529 1530 1530 1531 1532 1532 1532 1532 1532 1533 1533 1533 1533 1532 1532 1532 1532 1531 1531 1531 1531 1531 1530 1530 1530 1529 1529 1528 1528 1528 1528 1527 1525 1523 1523 1522 1521 1521 1520 1519 1519 1519 1518 1517 1517 1516 1516 1517 1517 1517 1516 1515 1514 1514 1515 1514 1514 1514 1514 1514 1513 1514 1513 1512 1512 1512 1511 1511 1511 1510 1510 1509 1510 1510 1510 1509 1508 1508 1508 1508 1508 1508 1507
1527 1528 1529 1529 1530 1531 1531 1532 1532 1532 1532 1533 1533 1533 1533 1533 1533 1532 1532 1532 1532 1531 1531 1531 1531 1531 1530 1530 1530 1529 1529 1529 1529 1529 1528 1525 1524 1524 1523 1523 1522 1521 1521 1521 1520 1519 1518 1518 1517 1517 1517 1518 1517 1516 1515 1515 1515 1514 1514 1514 1514 1513 1513 1514 1514 1513 1513 1513 1512 1511 1511 1511 1510 1510 1510 1510 1510 1510 1509 1508 1508 1508 1508 1508 1508
1527 1528 1528 1529 1530 1530 1531 1532 1532 1532 1532 1533 1533 1533 1533 1533 1533 1533 1533 1532 1532 1532 1532 1532 1532 1531 1531 1531 1531 1530 1529 1529 1529 1530 1529 1527 1526 1525 1525 1525 1524 1524 1524 1523 1522 1521 1520 1519 1519 1518 1517 1518 1518 1517 1516 1515 1515 1515 1515 1515 1514 1513 1514 1515 1515 1514 1514 1514 1513 1512 1511 1511 1511 1510 1510 1510 1510 1510 1510 1509 1508 1508 1508 1508 1508
1526 1527 1528 1529 1530 1530 1531 1531 1532 1532 1533 1533 1533 1533 1533 1533 1533 1533 1533 1533 1533 1533 1533 1533 1532 1532 1532 1532 1532 1531 1530 1530 1530 1530 1529 1528 1527 1526 1527 1527 1526 1526 1526 1525 1525 1523 1522 1521 1520 1520 1519 1518 1519 1519 1518 1517 1516 1516 1515 1515 1515 1515 1516 1515 1515 1514 1514 1514 1514 1513 1512 1511 1510 1510 1510 1510 1510 1510 1510 1510 1509 1508 1508 1508 1508
1526 1527 1528 1528 1529 1530 1531 1531 1532 1532 1532 1533 1533 1533 1534 1534 1534 1533 1533 1534 1533 1533 1533 1533 1533 1533 1533 1533 1532 1532 1531 1531 1530 1530 1530 1529 1528 1528 1528 1528 1528 1528 1527 1527 1527 1526 1525 1523 1522 1521 1521 1520 1520 1520 1519 1519 1518 1517 1517 1516 1516 1516 1516 1516 1515 1515 1514 1514 1514 1513 1512 1510 1510 1510 1510 1509 1509 1509 1509 1510 1509 1508 1508 1508 1508
1525 1526 1527 1528 1529 1530 1530 1531 1531 1532 1532 1533 1533 1533 1534 1534 1534 1534 1534 1534 1534 1534 1534 1534 1534 1534 1533 1533 1533 1532 1532 1531 1531 1531 1531 1530 1529 1529 1529 1529 1529 1529 1529 1528 1527 1527 1526 1525 1524 1523 1522 1521 1521 1521 1521 1520 1520 1519 1518 1518 1517 1517 1517 1516 1516 1516 1515 1515 1514 1514 1513 1511 1510 1510 1509 1509 1509 1509 1509 1509 1509 1508 1508 1508 1507
1525 1526 1527 1528 1528 1529 1530 1531 1531 1532 1532 1533 1533 1533 1534 1534 1534 1534 1534 1534 1534 1534 1534 1534 1534 1534 1534 1534 1533 1533 1532 1532 1532 1531 1531 1531 1530 1530 1530 1530 1530 1530 1530 1529 1527 1527 1527 1526 1525 1524 1524 1523 1522 1522 1522 1521 1521 1520 1520 1519 1519 1519 1518 1518 1517 1516 1516 1515 1515 1514 1513 1512 1511 1510 1509 1508 1507 1508 1509 1508 1508 1508 1508 1507 1507
1524 1526 1527 1527 1528 1528 1529 1530 1531 1531 1532 1532 1533 1533 1534 1534 1534 1534 1534 1535 1534 1534 1535 1535 1535 1534 1535 1534 1534 1534 1533 1533 1533 1532 1532 1532 1531 1531 1530 1530 1530 1530 1530 1529 1528 1528 1527 1526 1526 1525 1524 1524 1523 1523 1522 1522 1522 1521 1521 1521 1521 1520 1520 1519 1518 1517 1517 1516 1515 1515 1514 1513 1512 1511 1509 1508 1507 1507 1508 1508 1508 1508 1508 1507 1507
1523 1525 1526 1527 1528 1528 1529 1530 1530 1531 1532 1532 1533 1533 1534 1534 1534 1534 1534 1535 1535 1535 1535 1535 1535 1535 1535 1535 1535 1535 1534 1534 1534 1533 1533 1533 1532 1532 1531 1531 1531 1530 1530 1529 1529 1528 1528 1527 1526 1525 1525 1524 1524 1523 1523 1523 1523 1523 1522 1522 1522 1521 1521 1520 1519 1518 1518 1517 1516 1515 1514 1513 1512 1511 1510 1508 1508 1508 1508 1507 1508 1508 1508 1507 1507
Wind_Speed
5 5 6 6 4 4 6 8 9 8 8 8 8 7 8 7 7 7 7 7 7 6 6 5 4 4 3 3 3 3 4 5 5 6 6 6 6 7 7 6 6 6 6 6 6 5 5 5 5 6 5 6 6 8 9 9 9 10 10 10 9 9 9 9 10 11 12 13 13 15 15 14 13 13 14 13 14 14 15 15 14 13 11 13 14
6 6 7 6 5 6 7 8 7 7 7 7 7 8 8 8 8 8 8 8 8 7 7 6 5 4 3 3 3 3 4 4 4 5 5 6 6 6 7 7 7 6 6 5 5 5 4 5 5 6 6 6 6 7 9 9 9 8 9 9 9 8 9 9 10 11 12 12 13 14 14 13 13 13 13 13 13 13 13 13 12 11 10 13 13
6 6 7 6 6 8 7 6 6 6 6 7 8 9 9 9 9 9 8 8 8 7 7 6 6 5 4 3 3 3 3 4 4 4 5 5 6 6 6 6 7 7 7 5 5 5 5 5 6 6 6 6 7 7 8 8 8 8 8 8 7 7 8 9 10 11 12 12 12 12 12 12 12 12 13 12 12 11 11 10 11 12 13 13 13
7 8 8 7 7 7 7 6 6 7 8 9 9 9 9 9 9 8 8 7 7 7 6 6 5 5 5 5 4 3 3 4 4 4 5 5 5 5 5 5 6 6 7 6 6 5 4 5 5 5 6 6 7 7 8 8 7 7 7 7 6 6 7 8 9 10 11 11 11 11 10 11 12 12 12 12 11 11 11 11 11 12 13 12 11
8 8 8 8 6 5 6 6 8 9 9 10 9 9 9 9 8 8 8 7 7 7 6 6 5 5 5 6 6 5 4 4 4 4 5 5 5 5 5 5 5 5 6 6 5 5 4 4 4 5 6 6 6 7 7 7 6 6 6 6 5 6 7 7 8 9 9 9 9 10 10 9 11 11 10 11 11 11 11 11 10 12 12 11 10
8 8 8 7 5 5 7 8 9 9 9 9 9 8 8 8 8 9 9 8 8 7 7 6 6 6 6 6 6 6 6 5 5 5 5 6 5 5 5 6 5 5 5 5 5 5 4 4 4 5 6 5 5 6 7 6 5 6 6 6 6 6 7 7 8 8 8 9 9 9 8 7 9 10 10 10 10 10 11 10 10 12 11 10 10
9 8 7 5 5 6 8 9 9 8 8 8 8 9 8 9 9 9 9 8 8 7 7 7 7 7 7 7 7 7 7 7 6 6 6 6 6 6 6 6 5 5 5 5 4 5 4 4 5 6 6 5 5 5 5 5 5 6 6 6 6 7 7 7 7 7 7 7 8 6 5 6 7 8 8 9 8 9 11 9 9 11 10 11 12
9 8 6 5 6 8 9 9 8 8 8 8 9 9 9 9 9 8 8 7 7 7 7 7 7 7 8 8 8 8 7 7 7 7 7 7 7 6 6 6 5 4 4 5 5 5 5 4 4 5 5 5 5 5 5 5 5 6 6 6 6 7 7 7 6 6 6 6 6 4 4 5 5 6 6 6 7 9 9 8 9 10 10 11 13
9 8 7 7 8 8 9 9 9 9 9 9 9 10 10 10 9 9 8 8 7 7 7 7 7 7 7 8 8 8 9 8 8 7 7 7 7 7 6 6 5 5 4 4 4 5 5 4 4 5 5 5 5 5 5 5 5 6 6 6 6 7 7 6 5 4 5 5 4 4 4 3 3 5 4 4 7 8 8 9 10 12 12 12 14
9 8 8 8 8 9 10 10 9 10 10 11 11 11 11 10 9 9 9 8 8 8 8 7 7 8 7 7 7 7 8 9 9 7 6 7 6 7 7 7 6 5 4 4 4 4 4 4 4 4 5 6 6 6 5 5 5 6 6 6 6 7 7 6 4 4 4 4 4 3 3 2 2 4 3 4 6 7 8 10 11 13 14 14 17
10 9 9 9 9 10 10 10 10 11 11 11 11 10 10 9 8 8 8 9 9 9 8 8 7 8 8 7 5 5 7 8 8 7 5 5 7 8 8 8 7 5 4 3 3 3 3 3 3 4 5 5 6 5 5 5 5 5 5 5 6 6 5 4 3 4 4 3 3 3 2 2 2 3 4 4 5 7 9 11 13 15 16 17 19
10 10 10 10 11 11 10 10 11 11 11 11 10 10 9 9 8 9 9 9 10 10 9 8 7 8 8 7 5 5 7 9 8 5 4 5 8 9 9 9 9 9 7 5 4 2 2 3 4 5 5 4 4 5 5 5 5 4 4 4 5 5 4 3 2 3 4 3 2 2 0 2 2 3 4 5 7 9 11 13 15 17 18 19 20
11 11 11 12 11 11 10 10 10 10 10 10 10 9 9 8 9 9 10 11 11 11 10 8 7 7 7 7 5 6 7 9 8 5 5 6 8 9 8 9 9 11 10 9 7 4 3 3 4 6 5 4 4 4 5 5 5 4 3 3 4 4 3 2 2 2 3 2 1 1 2 2 2 4 5 6 9 11 13 15 16 17 18 18 18
11 11 11 11 10 10 10 10 10 9 10 10 9 9 8 8 9 10 12 13 14 13 11 7 6 7 7 6 5 6 7 8 7 5 5 6 7 8 7 8 9 9 8 9 8 4 3 3 5 5 4 4 4 4 5 5 5 4 4 4 4 4 2 1 1 2 2 0 2 4 3 2 4 5 6 8 11 12 14 15 16 17 17 17 17
11 10 10 9 9 9 9 9 10 10 10 9 9 8 8 9 9 11 13 14 15 14 11 7 5 6 7 6 6 7 8 8 7 6 5 6 6 8 7 8 10 8 7 8 8 5 4 4 5 4 5 5 4 5 5 5 4 4 4 4 4 3 1 1 2 1 0 1 3 4 3 3 6 6 6 8 9 11 13 14 15 16 16 17 17
11 10 10 9 8 8 8 9 10 11 10 9 9 8 8 10 11 12 14 15 16 15 11 6 5 6 7 7 7 8 8 8 8 7 7 7 7 8 8 9 9 7 7 7 7 5 6 6 5 5 6 5 5 5 5 4 3 3 3 4 4 3 2 1 2 2 1 2 3 3 3 4 6 6 6 6 6 8 11 14 15 16 16 15 14
10 10 10 8 8 9 9 9 9 10 9 9 9 8 9 11 11 13 15 16 17 16 11 5 5 7 8 8 8 8 8 8 8 8 7 7 8 8 8 8 7 6 6 7 7 6 7 7 6 6 6 5 5 5 5 4 3 3 4 4 4 3 3 3 4 4 3 3 3 3 3 4 5 6 6 5 5 5 8 14 15 15 15 13 12
10 10 9 9 10 10 10 9 9 9 8 9 9 9 10 11 12 13 15 17 18 16 11 6 5 6 7 9 9 8 8 8 8 7 6 7 8 8 7 6 6 6 7 8 8 7 8 7 7 6 5 5 6 5 4 4 3 3 4 4 4 3 4 5 4 3 4 4 3 3 3 4 4 5 6 4 4 5 6 11 13 13 13 12 12
9 10 9 10 11 10 8 8 8 8 9 10 10 10 10 10 11 13 15 17 18 15 11 7 5 6 7 9 10 9 8 8 8 6 6 6 7 7 7 7 6 6 8 8 8 9 8 8 8 7 6 6 6 5 4 4 3 3 4 4 4 4 5 5 3 2 4 4 4 5 4 4 4 3 5 5 4 7 8 9 12 12 11 11 11
10 10 9 9 9 9 7 7 8 9 10 11 10 10 9 10 12 14 16 18 20 16 13 11 8 7 6 7 8 7 8 9 8 6 7 7 7 7 7 8 7 7 8 8 9 10 10 9 9 8 7 6 6 5 4 4 4 4 4 4 4 4 4 4 4 5 4 4 6 6 4 4 5 4 4 6 6 8 9 10 13 12 11 11 11
9 9 9 8 7 8 8 8 9 9 10 10 10 10 10 12 13 14 15 18 21 18 15 14 11 10 7 6 7 7 8 8 7 7 8 11 10 9 7 9 9 8 8 9 10 11 11 11 10 9 8 6 6 6 5 5 4 4 4 4 4 4 3 4 5 6 5 5 6 5 4 5 6 6 5 6 7 8 9 10 12 12 11 11 12
6 6 8 8 7 7 8 9 10 9 9 9 10 9 11 13 13 13 14 16 18 18 15 14 13 12 10 9 9 9 8 7 7 7 8 9 10 10 8 9 9 7 8 9 10 11 11 11 11 10 9 8 7 7 6 5 5 5 4 4 3 2 3 5 4 4 5 4 4 4 4 5 6 7 6 7 7 8 10 10 11 12 11 10 11
5 5 6 8 8 7 9 10 11 9 8 9 8 8 10 12 12 12 14 15 16 17 16 14 13 13 12 11 11 10 10 9 7 6 7 6 7 9 9 9 8 8 8 9 11 11 11 12 11 11 10 9 8 8 6 5 5 5 5 4 2 1 3 5 3 3 4 3 3 3 4 5 5 6 7 8 8 8 9 10 11 12 12 11 11
5 6 6 7 8 8 9 10 10 9 8 8 7 7 10 12 11 12 13 14 15 16 16 15 14 13 13 12 11 10 9 9 7 6 6 5 6 8 9 9 9 9 10 11 10 10 11 12 12 12 11 9 8 7 5 4 4 5 5 4 2 1 2 3 3 4 4 4 4 3 4 5 5 4 6 8 8 8 9 10 12 13 13 12 11
5 6 6 7 8 8 9 9 9 10 9 8 7 8 10 11 11 12 13 14 14 15 15 16 15 14 13 12 11 9 8 7 7 6 6 6 7 7 8 8 7 8 11 10 8 8 9 10 11 11 10 10 9 7 6 6 6 6 5 4 4 3 3 4 4 4 4 4 4 4 4 4 5 5 5 7 7 7 8 10 13 14 14 13 12
5 6 6 6 7 9 9 9 9 9 10 8 7 8 10 10 12 13 13 13 13 14 14 15 15 15 14 12 11 10 8 6 6 6 6 7 7 7 8 8 7 8 9 7 6 7 7 8 9 10 11 10 10 9 9 8 7 6 6 6 6 5 5 5 5 4 4 5 5 5 4 5 6 6 6 5 6 6 7 10 12 14 14 13 13
5 5 5 6 7 9 9 8 8 9 10 9 8 7 9 11 12 13 12 13 13 13 14 14 15 16 15 13 13 11 9 7 5 5 5 5 7 7 7 8 8 8 8 7 7 7 7 8 9 10 11 10 9 10 10 9 8 8 7 7 7 7 6 6 6 5 5 5 6 6 5 5 6 6 6 5 5 6 7 10 13 13 13 12 12
4 4 4 5 7 8 8 8 8 9 10 10 8 7 9 12 12 12 12 13 12 12 14 14 14 16 16 14 14 12 11 8 6 4 4 4 5 7 8 8 9 8 9 8 8 8 8 8 9 9 10 10 9 10 10 10 11 10 8 7 7 7 7 7 6 6 6 6 6 6 6 5 5 6 6 5 5 5 6 9 12 13 13 12 12
3 3 4 5 7 8 7 7 8 8 9 9 7 7 10 12 12 12 13 12 11 12 13 14 15 16 17 15 14 14 12 10 8 6 4 4 5 6 7 8 9 9 9 9 8 8 8 8 9 8 9 10 9 9 10 11 12 10 8 9 9 8 8 7 6 6 6 6 7 8 7 5 5 5 5 4 5 4 4 7 9 12 13 13 13
3 3 3 4 6 7 6 7 7 8 8 8 8 9 10 12 12 13 12 10 11 12 13 13 15 16 17 16 15 14 12 11 10 8 6 5 5 5 6 7 8 9 9 9 8 8 8 8 8 8 8 8 8 9 9 10 11 10 9 9 9 8 8 7 6 7 7 7 8 8 7 7 5 4 4 4 4 4 3 5 7 10 12 14 14
3 3 3 3 5 6 6 7 7 7 7 7 8 9 11 11 12 12 11 11 11 11 12 13 14 16 17 17 16 14 12 12 11 9 8 6 5 5 6 6 7 8 9 9 8 8 7 7 8 8 8 8 7 8 8 8 10 10 10 10 9 8 8 8 7 7 8 8 8 8 8 7 6 4 4 4 4 4 4 4 5 8 10 13 15
3 3 3 2 4 6 7 7 7 7 7 7 8 9 10 11 11 11 11 12 12 10 11 12 13 16 18 17 16 14 13 13 12 11 9 7 6 5 5 6 6 7 7 8 9 8 7 7 8 9 9 8 7 7 7 8 9 9 10 10 10 9 8 8 8 8 8 8 9 9 8 8 6 5 5 5 4 4 3 3 4 6 8 11 14
3 4 3 2 4 5 7 7 7 6 6 6 8 9 9 9 10 10 10 11 12 11 11 12 13 15 18 18 16 15 14 13 13 11 9 8 7 6 5 5 6 6 7 8 9 9 8 8 8 9 8 7 7 7 7 8 9 9 10 10 10 10 9 9 8 8 9 9 10 10 8 7 7 6 5 5 5 5 4 4 3 4 6 7 10
4 4 3 3 4 5 6 6 6 6 6 6 7 8 8 8 8 9 10 11 11 12 12 13 14 14 16 17 16 16 15 14 13 11 10 8 7 6 6 6 6 7 7 7 8 8 9 9 8 8 8 7 7 8 8 8 9 9 10 10 10 11 10 10 10 9 10 10 10 10 9 7 7 7 6 6 6 5 5 5 4 3 4 5 6
4 3 3 3 3 4 6 6 6 5 5 6 6 7 7 7 7 8 9 10 11 12 13 13 14 14 15 17 17 16 16 15 14 12 10 8 7 7 6 6 7 7 7 7 8 8 9 9 8 7 8 7 7 8 9 9 10 10 10 10 10 11 10 11 11 10 10 9 9 9 9 8 7 6 6 7 7 6 6 5 5 4 3 3 5
3 3 3 3 3 3 5 5 5 4 4 5 5 6 6 6 6 7 8 10 11 12 13 13 13 14 14 15 16 16 16 16 15 14 12 10 8 7 6 7 8 8 8 9 9 9 9 10 9 8 7 7 7 8 9 9 10 10 10 10 10 10 10 10 10 10 9 9 9 9 8 8 8 7 7 8 8 8 7 5 5 5 4 4 4
2 2 3 3 2 3 5 4 4 3 3 4 5 5 5 5 6 7 8 10 11 12 12 12 12 13 13 14 14 15 17 17 16 15 14 12 10 8 7 9 9 8 8 9 9 9 9 10 9 8 8 7 7 8 9 9 9 9 9 9 9 9 9 10 9 9 9 8 9 9 8 9 9 8 9 8 7 7 8 6 5 5 4 5 4
2 3 3 3 2 2 4 4 3 2 3 3 4 4 4 5 5 7 8 9 10 11 11 12 12 13 13 13 13 14 16 18 18 18 16 14 13 11 10 10 10 8 8 8 9 9 10 10 10 8 8 8 7 8 9 8 8 8 9 9 9 9 9 10 10 9 9 9 9 9 8 9 9 9 9 8 7 7 7 7 6 5 4 4 3
3 3 3 2 2 2 2 3 3 3 3 3 3 3 4 4 5 6 8 9 9 10 11 12 12 13 13 13 13 12 14 16 18 20 19 17 15 13 13 12 11 9 8 8 8 9 9 10 11 10 8 8 7 7 8 8 7 7 8 8 9 9 9 10 10 10 10 10 10 10 9 9 9 8 8 8 7 6 5 6 6 5 5 5 4
4 3 3 3 2 1 2 3 2 2 3 3 3 3 3 4 5 6 8 8 9 10 10 11 11 12 12 13 13 12 13 14 16 19 20 20 18 16 14 13 11 10 9 9 9 8 9 9 10 11 9 7 6 7 6 6 6 6 7 7 8 8 9 9 10 10 10 10 10 10 10 10 9 8 7 7 7 6 5 5 5 4 5 5 4
5 4 4 4 3 2 2 2 2 2 2 2 3 3 4 4 5 6 7 8 8 9 10 10 10 10 10 12 13 12 13 15 16 18 19 20 20 20 18 15 13 12 12 11 10 8 8 9 8 9 9 7 7 6 6 5 5 5 5 6 7 7 8 7 8 8 8 9 9 9 10 9 9 8 7 7 6 6 4 3 3 4 3 3 3
5 5 5 5 4 3 2 3 2 2 2 3 3 3 4 4 5 6 7 7 8 9 10 10 9 9 9 10 12 12 11 12 14 16 17 19 20 21 22 20 16 15 14 13 13 11 9 9 8 7 8 7 7 6 5 6 4 3 4 5 5 6 7 7 6 6 7 8 8 8 9 9 8 8 8 7 7 5 4 4 3 2 2 2 2
6 6 6 5 5 5 4 3 3 2 3 3 3 3 4 4 5 7 7 8 8 9 10 10 10 9 9 9 11 12 10 9 11 12 14 18 19 19 20 21 20 19 17 15 15 14 12 11 8 7 7 7 6 5 4 5 5 4 3 3 3 3 4 6 6 6 6 5 6 6 7 7 7 7 7 6 6 6 5 4 3 2 2 2 2
8 7 7 6 6 6 6 5 4 3 3 4 4 4 4 4 6 7 8 8 8 9 9 10 10 10 10 10 10 11 10 9 9 9 11 15 18 17 17 19 20 18 17 18 17 16 15 14 11 8 7 7 7 6 4 3 4 5 5 3 1 1 3 5 5 5 6 6 5 5 5 5 6 6 6 5 5 5 4 3 2 2 1 1 1
9 9 8 8 7 7 6 6 5 4 3 4 4 4 4 4 5 6 7 8 8 9 9 9 10 10 10 10 10 11 10 9 9 8 8 11 15 14 13 15 16 14 14 15 17 17 16 15 14 11 10 9 8 7 6 5 4 4 4 4 2 3 5 5 3 2 4 4 5 6 6 5 6 6 5 4 4 4 4 4 2 2 2 1 1
10 10 9 9 9 8 7 6 5 5 4 5 5 4 4 5 5 6 6 7 7 8 8 8 9 9 9 9 9 10 10 10 9 8 8 9 12 12 10 10 12 12 11 12 14 15 16 16 16 15 14 12 9 8 8 8 8 7 6 5 5 4 5 6 5 3 2 2 4 6 7 8 6 6 5 4 3 3 2 3 3 3 3 2 2
11 11 11 10 9 8 7 7 6 5 5 5 5 5 5 5 6 6 6 6 6 7 7 7 7 8 8 8 8 9 10 9 8 8 8 8 10 11 9 9 10 11 11 11 11 12 14 16 18 18 17 16 12 11 10 9 9 9 9 8 7 6 6 6 6 5 3 2 4 5 7 8 6 5 5 5 5 4 2 2 3 4 3 2 2
12 12 12 11 9 8 7 7 6 6 5 5 6 5 5 5 5 6 6 6 6 6 6 6 7 7 8 7 8 8 9 9 9 8 7 8 8 9 8 8 9 10 10 10 11 11 12 15 17 18 19 19 17 14 12 11 9 9 9 8 8 7 7 8 7 6 5 4 4 6 8 9 6 5 6 6 6 5 3 3 3 3 4 3 2
13 12 12 11 10 9 8 8 7 6 6 6 6 5 5 6 5 5 5 5 5 5 6 6 6 6 7 7 7 8 9 10 10 10 10 10 10 10 11 10 9 9 9 10 12 12 13 14 14 15 16 17 18 15 13 12 11 10 9 8 8 6 6 7 7 7 6 5 5 7 9 9 7 7 8 7 6 5 4 4 4 3 4 5 4
13 13 12 12 11 10 9 9 8 7 6 6 6 5 5 6 5 5 5 4 4 5 5 5 5 6 6 7 8 8 9 10 11 13 13 13 13 14 14 14 13 13 12 13 14 13 13 13 13 14 14 13 14 14 13 12 11 10 9 9 8 8 7 7 8 7 7 7 7 8 9 10 8 8 10 9 5 3 4 5 5 4 5 6 6
14 14 13 12 12 11 10 9 8 8 7 7 6 5 5 6 5 5 4 4 3 4 4 4 5 6 6 7 8 9 10 11 12 13 14 14 14 14 14 14 14 13 13 14 14 12 12 13 12 13 12 11 11 11 10 9 8 8 8 8 8 8 8 8 8 8 9 8 9 9 9 10 9 8 10 10 7 4 4 4 5 5 6 7 7
Wind_Direction
125 96 79 70 74 65 49 47 44 42 45 45 43 40 35 33 30 28 27 24 22 21 15 12 10 359 353 347 335 319 303 296 291 291 290 289 284 276 275 276 277 272 270 273 273 270 270 272 270 271 270 270 271 271 270 269 269 270 272 273 277 282 280 276 270 266 264 266 268 269 270 271 268 263 260 259 259 257 253 252 257 260 254 246 242
120 97 80 73 75 73 63 60 54 46 43 40 39 38 36 36 33 30 26 23 21 19 17 16 15 9 3 357 350 339 326 314 299 294 292 294 289 281 276 276 280 275 274 278 284 276 266 265 265 266 265 266 267 270 271 273 277 277 278 280 287 290 283 277 271 268 267 269 271 274 276 276 273 268 264 261 259 256 250 245 250 248 241 246 248
117 96 83 77 77 79 74 69 63 50 44 45 44 44 42 39 36 33 29 26 23 18 16 11 6 1 352 345 337 332 330 321 309 300 291 290 289 287 284 284 284 280 279 282 286 279 270 267 265 269 271 271 267 269 275 278 281 280 283 288 291 290 285 278 274 271 269 270 273 276 280 282 279 273 269 264 259 255 248 243 244 233 224 234 245
109 91 81 71 68 79 82 71 63 53 50 51 47 44 39 36 33 30 27 21 16 13 8 2 355 346 337 328 320 312 310 310 308 300 290 287 285 287 290 288 287 283 280 283 291 288 279 271 270 278 278 275 271 272 277 281 284 286 288 290 292 289 286 281 278 274 273 272 271 274 276 280 280 277 271 266 260 253 248 244 242 230 220 224 231
99 90 83 71 61 68 78 66 58 54 51 47 41 37 31 26 20 16 13 8 3 356 351 347 341 333 325 318 316 309 298 296 298 295 289 290 290 289 289 289 290 286 279 281 293 296 289 285 289 286 275 270 272 275 278 282 292 295 294 293 294 289 283 284 282 276 276 274 272 274 277 281 281 279 271 265 258 252 245 237 232 223 217 214 215
93 91 85 77 64 59 68 62 58 53 47 42 37 34 28 23 17 14 9 4 356 347 341 335 328 320 314 310 310 308 302 292 283 285 289 291 293 290 289 290 290 290 286 284 290 293 294 297 299 290 285 285 281 282 283 286 293 292 293 294 295 291 285 285 282 278 278 277 276 280 293 296 281 276 265 258 250 241 233 223 218 214 209 197 196
94 92 84 84 76 67 66 61 58 50 45 43 40 36 30 27 21 17 11 3 354 347 341 331 323 314 309 307 302 300 301 296 281 275 284 287 288 289 292 295 294 296 293 289 288 289 293 297 294 295 304 308 295 293 293 291 293 291 291 292 293 293 286 282 281 281 280 281 285 289 300 292 277 273 258 249 236 225 223 216 209 206 202 189 181
96 92 87 86 78 75 70 63 58 49 48 43 37 31 24 21 14 8 2 353 345 341 338 334 327 318 309 302 297 290 287 290 284 277 279 284 291 295 294 292 290 287 287 289 290 291 294 297 293 296 312 318 310 309 308 301 295 290 285 284 284 286 286 284 285 285 284 285 286 285 276 269 272 268 248 236 218 212 214 200 194 195 191 181 171
99 97 96 86 77 76 70 60 52 44 41 34 28 22 16 12 5 357 351 344 338 328 325 327 324 320 309 294 289 286 281 278 282 283 284 285 291 292 287 285 282 275 276 283 286 292 295 298 304 304 311 315 318 322 315 306 291 281 276 275 275 282 292 289 288 298 299 295 288 279 271 270 264 255 242 223 210 204 198 182 186 190 181 169 160
104 101 94 83 76 70 61 51 41 35 32 27 24 18 14 10 1 352 348 345 336 325 323 326 322 319 312 295 288 294 292 287 282 278 286 290 288 288 289 285 280 277 276 282 287 290 297 303 317 319 315 313 317 323 314 300 281 272 270 274 280 289 300 299 302 316 307 298 299 292 283 285 263 249 236 210 203 196 183 171 179 182 172 160 152
102 94 85 78 70 61 53 43 34 31 26 22 22 17 16 11 2 359 358 352 341 332 330 336 332 325 326 315 306 317 315 314 299 281 295 302 291 297 309 299 284 287 278 277 291 286 303 319 334 336 327 317 312 312 305 293 284 283 277 278 290 298 309 316 319 315 304 300 313 317 290 265 248 236 222 200 183 174 166 162 167 167 162 156 148
95 85 78 71 61 53 46 38 32 27 20 21 22 18 18 12 10 13 8 359 349 341 336 339 341 337 340 333 328 337 332 335 330 316 329 315 303 316 329 321 308 312 313 312 320 325 331 335 351 353 350 327 302 299 303 300 299 305 299 297 302 301 304 308 300 305 307 306 322 338 250 192 197 204 205 188 167 156 152 155 157 156 155 152 146
88 80 72 64 53 47 40 34 30 24 22 25 25 20 20 20 22 22 14 7 358 348 341 338 342 347 347 340 339 348 347 349 353 354 345 320 319 330 324 319 316 316 321 319 324 356 348 350 19 9 359 329 302 301 307 313 315 319 322 325 320 304 289 281 298 313 312 304 295 140 146 162 171 167 165 158 156 150 146 150 152 152 153 150 144
87 78 69 63 51 44 36 29 28 26 29 31 30 27 30 33 32 26 18 13 4 356 348 337 338 354 358 353 356 360 3 4 8 13 349 320 324 336 321 319 328 325 325 314 314 344 346 5 32 15 357 331 317 314 312 319 323 326 333 335 335 325 283 263 336 317 306 245 158 142 132 141 147 142 141 142 147 148 148 153 155 153 152 149 144
89 77 68 61 49 41 30 27 30 30 33 32 34 39 41 41 34 25 18 12 6 0 354 343 343 4 13 13 15 11 11 11 6 2 347 325 330 342 336 339 350 344 329 314 307 328 351 12 29 10 356 346 332 326 325 324 323 329 336 341 348 356 330 304 344 306 289 114 133 119 93 119 134 126 128 135 141 147 150 157 158 153 151 150 147
85 74 64 57 48 40 31 30 30 30 34 34 40 46 47 42 32 21 13 8 3 1 357 354 8 21 27 27 26 19 13 8 356 353 345 335 343 353 351 358 5 348 335 334 321 337 7 14 20 11 358 351 339 333 338 342 338 337 345 350 352 18 45 62 22 30 91 93 106 98 66 100 134 130 128 135 141 151 155 157 158 154 152 152 151
78 71 62 55 51 46 42 38 30 29 34 41 48 49 48 42 29 18 11 5 360 360 359 6 30 31 34 34 32 24 15 7 357 356 349 342 355 1 360 5 358 337 349 359 346 2 23 21 18 14 358 347 344 336 341 355 354 346 354 359 4 37 76 90 55 43 76 94 94 78 77 114 146 139 134 143 142 153 162 155 155 155 153 153 148
74 68 60 53 52 47 43 40 35 32 36 41 49 54 51 40 25 16 10 5 2 4 9 21 37 34 36 37 37 34 24 12 5 358 351 357 1 2 10 14 358 352 13 13 2 13 25 27 25 20 6 349 344 337 340 355 356 353 355 4 27 56 78 81 65 53 69 86 91 64 86 122 134 123 128 138 140 162 172 154 154 157 152 148 141
71 65 57 52 51 46 39 35 38 38 42 44 48 55 51 39 27 16 10 9 11 16 25 33 41 36 37 42 43 45 41 23 11 355 349 10 4 5 30 29 10 8 21 18 10 17 24 28 27 24 15 359 350 348 351 356 358 1 6 19 46 69 71 67 50 68 82 92 91 71 78 109 113 108 129 138 145 162 166 157 161 163 151 142 136
70 63 54 55 51 45 40 34 42 46 48 50 51 55 48 38 31 20 13 16 21 29 38 39 43 40 36 45 50 50 50 39 23 10 1 10 8 8 33 37 22 14 21 23 22 25 29 27 23 20 13 5 1 4 4 358 6 18 28 39 62 69 66 65 44 59 81 89 83 77 81 98 112 113 126 138 146 155 157 160 168 166 154 145 138
75 65 54 54 49 42 39 36 45 51 52 56 58 54 44 36 33 26 20 22 25 32 40 38 38 37 29 35 49 46 47 46 30 24 18 14 14 10 20 33 23 16 22 25 30 33 33 30 23 19 13 8 9 17 13 7 18 24 29 43 64 62 58 71 59 60 65 70 80 85 91 96 111 119 123 139 146 147 150 160 168 166 157 151 143
88 73 57 52 53 45 39 39 43 47 52 59 60 50 41 37 35 32 27 25 27 31 39 40 35 34 35 35 40 39 37 44 32 19 19 18 22 21 23 29 16 12 25 28 36 36 34 33 27 23 20 19 20 22 18 15 21 22 30 44 62 66 70 80 76 72 70 68 77 81 100 110 116 122 127 138 141 138 146 159 168 165 157 154 147
90 82 63 54 56 47 38 39 40 41 47 56 58 44 38 39 37 37 31 26 28 31 38 42 37 34 37 37 36 36 31 32 34 16 9 14 26 33 39 35 13 12 34 41 44 40 38 37 32 31 30 28 27 24 25 26 21 21 34 45 52 50 70 87 98 80 83 85 80 81 103 114 120 132 135 137 138 132 143 157 163 161 155 155 152
90 88 70 54 53 43 37 37 36 36 42 53 54 41 39 39 38 40 35 30 30 31 36 39 37 34 31 31 29 29 28 23 28 23 15 25 27 28 42 41 17 19 43 44 37 34 37 39 35 35 34 31 28 27 36 40 34 31 31 38 46 45 59 81 102 87 87 93 93 92 98 115 126 132 126 129 137 132 138 151 158 160 158 159 155
90 85 69 53 47 40 38 35 34 33 37 49 49 42 43 41 39 41 37 32 32 31 33 33 32 32 27 26 21 16 22 18 19 23 20 29 32 28 38 48 31 28 44 41 30 30 30 32 32 33 33 31 31 37 49 47 45 45 38 45 59 68 68 70 89 96 91 94 101 90 79 95 101 86 91 116 132 132 137 150 158 163 164 162 158
86 80 68 54 46 40 38 32 34 34 34 45 47 42 42 42 41 41 38 33 33 31 30 29 27 28 24 22 20 14 13 8 11 21 20 17 25 32 31 45 47 38 45 40 33 38 31 30 30 31 35 32 31 42 54 55 54 54 50 55 66 73 76 76 85 100 99 90 91 86 72 68 72 68 77 115 136 139 145 155 163 168 166 161 161
87 81 69 57 46 37 35 31 33 36 34 41 46 39 38 43 42 40 39 35 34 31 30 28 24 22 21 20 18 15 11 13 17 17 26 20 17 26 27 38 43 37 41 41 38 42 39 36 33 32 37 38 37 46 53 58 65 65 57 54 60 71 83 89 91 99 98 81 77 83 78 67 74 78 83 113 139 147 153 162 169 169 167 166 168
95 86 70 60 47 35 35 33 31 35 33 39 46 37 37 44 43 41 41 39 36 36 34 30 26 19 19 20 16 18 22 27 36 28 27 31 21 23 27 36 41 35 34 36 37 43 42 40 36 31 35 39 38 46 52 56 62 63 59 57 58 67 82 90 91 93 90 76 70 78 81 74 81 90 92 112 135 147 158 167 170 167 171 177 178
106 97 78 64 47 37 38 33 30 34 32 36 42 36 38 42 42 45 45 42 39 41 37 33 30 21 19 23 19 26 36 35 42 43 35 38 33 30 30 33 37 36 33 29 31 39 40 39 37 29 30 34 32 42 52 53 58 60 56 58 60 65 76 82 84 83 80 73 62 66 77 78 74 85 93 109 131 143 158 164 167 169 176 181 183
119 105 85 72 49 40 39 32 31 34 31 31 35 36 41 42 42 48 52 49 45 44 39 34 31 24 23 26 26 35 41 40 43 44 42 43 40 37 36 32 28 32 34 29 26 35 38 37 37 31 31 31 27 40 53 52 54 60 58 59 61 65 72 76 75 69 65 65 60 60 71 78 73 79 94 105 124 142 161 162 168 173 180 187 188
127 112 98 83 56 45 37 34 34 34 29 29 34 40 44 46 47 52 57 55 51 46 38 35 31 29 29 28 31 41 42 39 43 46 46 49 49 41 37 35 27 27 32 29 26 33 35 35 41 40 38 36 32 42 53 53 51 55 59 63 66 66 69 71 69 65 62 61 63 64 65 75 84 86 93 99 114 143 159 163 175 175 180 190 193
134 132 129 91 64 49 37 37 37 33 29 30 36 43 47 48 49 51 53 52 52 48 40 37 33 32 35 33 34 42 43 38 41 48 50 51 55 48 36 35 31 23 27 31 31 35 33 29 39 41 36 36 41 51 57 57 55 55 60 64 65 67 69 70 73 72 71 68 68 69 65 66 75 81 87 92 97 112 134 158 181 182 188 193 196
142 147 139 92 65 49 40 41 39 34 33 33 38 44 47 47 47 47 45 46 48 48 45 41 38 36 36 37 38 40 43 39 39 47 51 51 54 52 41 30 30 25 23 32 33 35 34 27 32 34 32 38 47 57 62 61 61 59 62 66 66 68 69 70 73 73 72 71 69 69 68 63 58 64 76 83 87 90 101 126 156 180 198 200 199
147 149 129 92 65 45 40 44 42 40 38 36 37 40 44 45 45 44 40 42 45 47 49 45 42 41 37 38 41 41 42 41 39 44 49 49 48 47 42 29 31 32 28 39 39 33 36 33 31 30 31 42 50 60 67 65 67 67 66 68 68 69 72 74 74 74 73 72 71 68 68 68 60 62 68 73 82 86 86 93 106 149 190 199 200
153 153 122 100 77 46 40 47 47 47 41 35 34 33 37 41 42 44 39 40 44 47 52 51 45 45 41 38 43 43 42 42 38 39 43 42 40 38 36 39 40 40 41 50 49 37 35 36 37 36 33 40 50 62 69 68 69 72 71 71 72 71 72 74 74 75 76 74 73 70 66 68 69 70 67 64 73 81 79 82 91 104 138 170 190
154 149 122 112 98 52 43 48 50 54 46 37 38 32 32 35 38 43 41 41 46 48 52 53 49 48 45 39 43 44 41 42 38 37 39 35 39 38 41 58 54 48 52 54 52 43 36 35 40 49 46 42 52 65 71 70 69 71 73 73 72 74 74 74 75 73 74 75 73 70 67 68 67 70 71 64 63 70 73 75 80 86 97 111 143
152 140 128 131 121 66 53 55 55 65 62 45 42 36 32 34 37 38 42 45 47 50 54 55 53 52 49 43 44 43 41 44 41 38 38 36 42 49 58 72 64 56 58 55 50 42 38 37 38 56 65 53 52 69 75 71 69 69 71 72 70 72 75 74 74 73 72 73 72 68 64 61 58 60 67 70 67 62 66 73 75 78 84 91 109
161 156 153 151 135 87 68 63 64 82 81 57 45 40 38 42 43 39 46 53 50 50 55 57 56 55 51 47 47 44 42 45 45 42 41 39 45 59 70 74 69 64 59 53 47 41 42 43 40 53 77 74 61 67 75 73 71 68 66 69 68 66 68 70 71 71 70 67 65 63 59 53 51 51 54 64 72 67 62 67 71 73 75 80 95
176 169 175 169 142 110 81 70 74 93 91 70 53 49 51 52 53 49 51 56 54 51 54 56 58 57 53 50 50 48 44 44 45 47 48 46 50 64 70 69 68 69 64 57 49 41 44 50 48 53 71 85 78 71 75 75 76 75 69 66 66 64 62 63 63 63 63 62 59 57 56 52 47 44 45 48 60 72 73 73 76 78 79 81 87
186 177 185 179 154 152 104 88 89 103 100 86 71 63 64 60 56 55 54 56 57 55 55 54 54 56 55 53 53 52 49 47 47 49 51 52 56 65 70 67 65 67 67 62 54 50 52 54 55 57 62 70 73 73 76 76 75 78 79 72 67 64 61 58 56 55 55 56 55 53 52 53 50 42 41 40 43 58 73 82 87 88 82 79 81
192 187 190 179 164 181 144 118 112 109 111 105 89 80 76 66 57 56 55 56 58 57 56 55 53 54 54 54 55 55 54 54 54 54 55 56 58 63 68 69 66 63 60 56 55 57 58 57 56 58 62 65 67 67 72 77 76 78 82 82 74 64 57 55 53 51 47 48 48 45 44 44 47 46 41 39 37 43 55 66 80 85 82 73 67
193 188 188 179 171 181 169 148 135 121 124 115 97 83 76 69 63 61 59 59 60 59 58 56 55 54 53 54 56 57 56 53 53 53 56 61 61 61 65 67 67 63 57 53 52 56 59 63 65 60 57 64 71 69 68 71 66 75 85 84 79 66 56 45 38 44 43 43 40 35 35 29 31 41 40 34 29 29 35 38 45 68 82 69 54
189 186 185 180 175 177 174 163 146 137 132 118 105 91 80 71 68 64 60 59 59 61 61 58 57 56 54 53 54 59 61 56 54 49 53 64 66 62 64 67 69 65 61 58 54 52 56 59 67 76 62 50 57 64 76 75 54 40 58 67 64 67 67 45 23 24 28 30 30 22 23 17 12 29 39 32 23 20 21 24 24 36 72 64 42
188 185 184 180 176 175 171 164 153 150 141 125 112 101 95 80 72 67 60 59 59 62 63 59 58 58 56 53 52 58 63 64 66 58 53 62 67 66 63 64 66 62 56 58 57 53 53 53 56 75 81 57 42 43 54 76 62 37 29 30 21 41 64 41 9 358 6 11 16 4 357 356 351 4 25 26 17 12 4 2 8 3 13 29 18
186 183 184 180 178 174 168 163 157 154 145 130 117 105 103 87 76 69 63 61 58 58 58 56 56 56 56 54 52 56 61 62 68 68 57 59 65 67 61 56 58 58 51 51 53 52 53 55 54 62 79 72 49 39 39 45 63 59 45 33 12 20 27 9 331 327 357 5 5 352 336 328 325 330 345 356 3 5 351 334 325 324 320 317 310
183 183 182 179 178 174 169 163 158 156 147 132 122 114 108 94 86 81 74 69 63 58 57 54 54 57 57 54 51 54 58 59 62 68 66 64 64 64 62 55 51 54 53 50 49 48 50 55 57 58 66 67 56 47 44 40 43 50 59 54 41 34 13 348 339 345 359 12 3 353 340 329 319 312 311 312 325 342 340 317 303 298 296 288 291
181 181 179 180 178 173 171 167 161 157 149 134 126 120 111 99 92 87 80 76 69 61 61 59 56 59 60 56 54 53 56 60 61 65 64 64 65 64 64 61 54 51 49 51 53 49 48 55 60 61 61 63 62 53 48 44 41 42 47 49 48 48 35 17 6 355 351 3 8 4 354 348 341 321 304 292 296 305 301 295 289 288 293 284 286
178 178 180 181 176 173 175 171 165 159 151 139 131 124 115 107 98 90 83 77 71 64 64 62 58 64 64 59 58 55 57 63 66 69 67 66 68 67 65 63 59 55 47 48 58 58 54 55 56 59 60 61 63 59 52 50 48 44 42 41 42 44 41 38 33 20 7 1 13 12 3 3 7 355 332 303 285 282 274 274 272 271 273 257 259
175 176 180 181 175 176 178 171 167 162 155 145 136 130 122 113 105 99 92 80 70 66 64 60 60 66 63 60 64 61 60 66 71 78 79 76 76 75 74 71 68 69 64 59 62 61 58 56 54 56 56 56 59 60 58 55 53 50 44 40 37 37 40 36 32 32 23 11 12 9 4 7 9 7 359 336 302 275 258 260 263 261 261 254 250
175 175 177 181 178 178 178 173 169 166 160 151 143 135 128 119 113 112 102 84 73 72 73 67 67 68 62 63 69 70 70 74 78 82 83 81 80 79 76 72 69 70 68 62 58 55 51 50 49 50 49 47 48 51 52 51 50 47 45 44 40 37 40 31 23 25 24 15 12 9 8 8 5 2 2 359 350 308 264 255 261 263 260 259 256
177 176 176 182 181 179 178 174 171 170 164 155 149 141 135 131 127 127 117 101 89 88 87 80 73 73 73 73 76 79 83 85 85 84 83 81 77 74 72 69 65 63 60 56 53 48 44 42 40 40 40 38 36 38 40 37 37 36 33 37 40 38 35 26 21 21 18 15 10 8 8 5 3 1 359 5 12 345 290 265 261 265 260 255 255